Miscellaneous Local Product
Issued by NWS North Platte, NE

Home | Current Version | Previous Version | Text Only | Print | Product List | Glossary On
Versions: 1 2 3 4 5 6 7 8 9 10 11 12 13 14 15 16 17 18 19 20 21 22 23 24 25 26 27 28 29 30 31 32 33 34 35 36 37 38 39 40 41 42 43 44 45 46 47 48 49 50
000
AXUS43 KLBF 251210
MISLBF


WESTERN AND NORTH CENTRAL NEBRASKA HOURLY WEATHER ROUNDUP
NATIONAL WEATHER SERVICE NORTH PLATTE NE
700 AM CDT FRI JUL 25 2014

***STATIONS NOT REPORTING VARIABLES SUCH AS SKY/WEATHER OR
PRESSURE ARE PROVIDED BY THE NEBRASKA DEPARTMENT OF
ROADS...RAWS...AND APRS NETWORKS...AND ARE NOT UNDER
NATIONAL WEATHER SERVICE QUALITY CONTROL***

...OBSERVATIONS IN AND NEAR THE EASTERN PANHANDLE OF NEBRASKA...

CITY           SKY/WX    TMP DP  RH WIND       PRES   REMARKS
PINE RIDGE     CLEAR     61  47  59 N9        29.96R
CHADRON        CLEAR     64  58  80 NW5       29.98R
ALLIANCE       CLEAR     65  59  81 N10       29.97R
SIDNEY         CLEAR     65  53  65 NW13      29.99R
WHITECLAY        N/A     60  49  66 NW5         N/A
RUSHVILLE        N/A     63  48  57 N23         N/A
GORDON           N/A     65  52  62 N24         N/A
CRESCENT LAKE    N/A     67  57  70 N13         N/A
LISCO            N/A     74  56  52 W14         N/A
BIG SPRINGS      N/A     65  60  83 W5          N/A
$$

...OBSERVATIONS IN NORTH CENTRAL NEBRASKA...

CITY           SKY/WX    TMP DP  RH WIND       PRES   REMARKS
VALENTINE      PTCLDY    70  62  76 NW12      29.81R
THEDFORD       CLEAR     71  58  63 W13       29.82R
AINSWORTH      CLEAR     69  59  71 W12       29.77R
O`NEILL        CLEAR     70  66  87 CALM      29.74R
ORD            CLEAR     68  66  93 SE5       29.73S FOG
BROKEN BOW     CLEAR     70  66  87 W5        29.76S
BROWNLEE         N/A     74  63  67 NW21        N/A
SPRINGVIEW       N/A     71  65  82 CALM        N/A
DUNNING          N/A     72  63  72 N8          N/A
ROSE             N/A     74  73  98 S6          N/A
NEWPORT          N/A     69  69  98 CALM        N/A
SARGENT          N/A     70  67  90 CALM        N/A
COMSTOCK         N/A     77  73  88 CALM        N/A
CHAMBERS         N/A     70  68  94 S5          N/A
$$

...OBSERVATIONS IN SOUTHWEST NEBRASKA AND FAR NORTHEAST COLORADO...

CITY           SKY/WX    TMP DP  RH WIND       PRES   REMARKS
WRAY             N/A     64  56  74 W6        29.91S
HOLYOKE        FAIR      66  57  72 W9        29.91R
IMPERIAL       CLEAR     64  57  78 W5        29.87R
OGALLALA       CLEAR     59  56  89 CALM      29.86S
NORTH PLATTE   CLEAR     67  58  72 SW6       29.83R
MCCOOK         PTCLDY    68  57  68 SW3       29.83S
LEXINGTON      CLEAR     72  60  66 W7        29.79R
PAXTON           N/A     64  59  85 CALM        N/A
SUTHERLAND       N/A     65  62  89 W3          N/A
BRADY            N/A     69  60  72 CALM        N/A
GOTHENBURG       N/A     72  58  60 SW6         N/A
CALLAWAY         N/A     69  67  94 SW7         N/A
$$

...SOME WEATHER OBSERVATIONS FROM AROUND THE REGION...

CITY           SKY/WX    TMP DP  RH WIND       PRES   REMARKS
DENVER         MOCLDY    71  49  45 SW8       30.07R
LARAMIE        MOCLDY    59  45  59 SE10      30.22F
CHEYENNE       PTCLDY    70  45  40 W16G22    30.12R
SCOTTSBLUFF    CLEAR     63  55  75 W5        30.00R
RAPID CITY     CLEAR     63  37  38 NW16      29.96R
PIERRE         CLEAR     69  66  90 N14       29.76R
WINNER         FAIR      69  61  75 NW10      29.76R
SIOUX FALLS    PTCLDY    66  61  84 SE18G28   29.79F
OMAHA          CLOUDY    75  64  68 SE16      29.79R
GRAND ISLAND   CLEAR     79  67  66 SW18G25   29.75R
KANSAS CITY    CLOUDY    74  66  76 S13       29.91R
WICHITA        PTCLDY    73  68  84 S12       29.91S
HAYS           CLEAR     54 N/A N/A SW18      29.84S
LIBERAL        CLEAR     75  61  60 S15       29.97F
GOODLAND       PTCLDY    69  56  62 W8        29.90S
$$



USA.gov is the U.S. government's official web portal to all federal, state and local government web resources and services.